{"data":{"norad_id":64817,"epoch":"2026-09-21T23:06:09.202464Z","epoch_age_seconds":48166,"freshness":"FRESH","line1":"1 64817U 25151B   26264.96260651  .00001716  00000+0  25400-3 0  9993","line2":"2 64817  51.9005 157.6332 0001179  90.1929 269.9168 14.79937877 65489","mean_motion":14.79937877,"eccentricity":0.0001179,"inclination_deg":51.9005,"raan_deg":157.6332,"arg_perigee_deg":90.1929,"mean_anomaly_deg":269.9168,"bstar":0.000254,"rev_number":6548,"period_min":97.301381522787,"perigee_km":628.69403094894,"apogee_km":630.34643652465,"semimajor_km":7007.6572337368,"source":"CELESTRAK","updated_at":"2026-09-22T09:00:29.973438Z"}}